Regional Weather Roundup
Issued by NWS

Home | Current Version | Previous Version | Text Only | Print | Product List | Glossary Off
Versions: 1 2 3 4 5 6 7 8 9 10 11 12 13 14 15 16 17 18 19 20 21 22 23 24 25 26 27 28 29 30 31 32 33 34 35 36 37 38 39 40 41 42 43 44 45 46 47 48 49 50

000
ASUS45 KCYS 111010
RWRWY

WYOMING REGIONAL WEATHER ROUNDUP
NATIONAL WEATHER SERVICE CHEYENNE WY
300 AM MST THU FEB 11 2016

NOTE:  "FAIR" INDICATES FEW OR NO CLOUDS BELOW 12,000 FEET
WITH NO SIGNIFICANT WEATHER AND/OR OBSTRUCTIONS TO VISIBILITY.

WYZ001-111100-
YELLOWSTONE NATIONAL PARK

CITY           SKY/WX    TMP DP  RH WIND       PRES   REMARKS
LK YELLOWSTONE   N/A     23  18  81 CALM      30.33F
W YELLOWSTONE  NOT AVBL

$$
WYZ002>013-054>058-071-098>099-111100-
NORTHERN WYOMING

CITY           SKY/WX    TMP DP  RH WIND       PRES   REMARKS
JACKSON        MOCLDY    10  10 100 NE3       30.37R
CODY           FAIR      48  19  32 NE6       30.08S
GREYBULL       FAIR      33  26  75 E3        30.09F
WORLAND        FAIR      32  27  81 VRB5      30.11R WCI  27
SHERIDAN       CLOUDY    39  26  59 CALM      30.00F
BUFFALO        FAIR      43  22  43 SW3       30.04S
GILLETTE       FAIR      43  23  45 SW16      30.01F
HULETT         FAIR      37  28  70 SW10      30.01S WCI  30
NEWCASTLE      FAIR      30  23  74 CALM      30.06F

$$
WYZ014>020-022>026-101>103-111100-
CENTRAL WYOMING

CITY           SKY/WX    TMP DP  RH WIND       PRES   REMARKS
BIG PINEY      FAIR      17  11  77 NW5       30.34R WCI  10
PINEDALE         N/A     12   9  85 W6        30.33F WCI   3
DUBOIS         FAIR      34  14  44 NW21G28   30.22R WCI  22
LANDER         FAIR      38  15  39 SW7       30.16R WCI  33
RIVERTON       FAIR      27  18  69 CALM      30.16S
CASPER         FAIR      35  21  56 SW21      30.13F WCI  24
DOUGLAS        FAIR      28  22  78 CALM        N/A

$$
WYZ021-027>030-104>119-111100-
SOUTHERN WYOMING

CITY           SKY/WX    TMP DP  RH WIND       PRES   REMARKS
EVANSTON       FAIR      25  11  55 SW10      30.38S WCI  15
FORT BRIDGER   SUNNY     30  16  55 W22       30.37S WCI  17
ROCK SPRINGS   FAIR      32  15  49 SW14      30.33R WCI  22
DIXON          FAIR      11   6  80 SE5       30.37F WCI   3
RAWLINS        FAIR      32  17  54 SW14      30.25F WCI  22
SARATOGA       FAIR      27  14  59 S9        30.29S WCI  17
LARAMIE        FAIR      33  14  45 SW12      30.20F WCI  24
CHEYENNE       FAIR      37  15  40 MISG      30.14F
TORRINGTON     FAIR      31  22  69 NW3       30.09F
PINE BLUFFS    FAIR      30  21  69 S5        30.14F WCI  25

$$



USA.gov is the U.S. government's official web portal to all federal, state and local government web resources and services.